Regional Weather Roundup
Issued by NWS

Home | Current Version | Previous Version | Graphics & Text | Print | Product List | Glossary On
Versions: 1 2 3 4 5 6 7 8 9 10 11 12 13 14 15 16 17 18 19 20 21 22 23 24 25 26 27 28 29 30 31 32 33 34 35 36 37 38 39 40 41 42 43 44 45 46 47 48 49 50
000
ASUS43 KFSD 240302
RWRSD

WEATHER ROUNDUP FOR SOUTH DAKOTA
NATIONAL WEATHER SERVICE SIOUX FALLS SD
1000 PM CDT FRI JUN 23 2017

NOTE: "FAIR" INDICATES FEW OR NO CLOUDS BELOW 12,000 FEET WITH NO
SIGNIFICANT WEATHER AND/OR OBSTRUCTIONS TO VISIBILITY.


SDZ001>005-009-010-012>017-240400-
NORTHWEST AND NORTH CENTRAL SOUTH DAKOTA

CITY           SKY/WX    TMP DP  RH WIND       PRES   REMARKS
BUFFALO          N/A     58  29  33 NW13      30.13R
FAITH            N/A     56  32  40 NW10      30.16R
MOBRIDGE       CLEAR     58  36  43 N8        30.09R
$$

SDZ012>016-024>037-041>051-057-063-072>074-240400-
SOUTHWEST AND SOUTH CENTRAL SOUTH DAKOTA

CITY           SKY/WX    TMP DP  RH WIND       PRES   REMARKS
RAPID CTY ARPT CLEAR     55  27  34 N10       30.21R
PIERRE         CLEAR     57  39  51 N9        30.11R
CUSTER         CLEAR     52  23  32 NW5       30.29R
ELLSWORTH AFB  CLEAR     61  27  27 NW9       30.21R
PHILIP         CLEAR     57  30  35 NW9       30.16R
PINE RIDGE     CLEAR     55  34  45 E3        30.22R
SPEARFISH      FAIR      55  28  35 NW3       30.24S
WINNER         FAIR      59  34  39 N7        30.14R
$$

SDZ004>011-016>023-039-040-240400-
NORTHEAST SOUTH DAKOTA

CITY           SKY/WX    TMP DP  RH WIND       PRES   REMARKS
ABERDEEN       CLEAR     56  40  55 NW9       30.07R
WATERTOWN      CLEAR     58  41  53 NW14      30.04R
BROOKINGS      CLEAR     54  43  66 NW7       30.06R
SISSETON         N/A     57  41  55 NW9       30.01R
$$

SDZ017-020-022-023-036>040-048>070-240400-
SOUTHEAST SOUTH DAKOTA

CITY           SKY/WX    TMP DP  RH WIND       PRES   REMARKS
SIOUX FALLS    PTCLDY    56  44  64 NW8       30.06R
HURON          CLEAR     53  44  71 NW6       30.08R
CHAMBERLAIN    CLEAR     59  40  49 W5        30.12R
MITCHELL       CLEAR     59  40  49 NW6       30.09R
YANKTON        CLEAR     57  42  57 NW8       30.09R
$$

ABBREVIATIONS USED IN REMARKS
   TC - TEMPERATURE IN CELSIUS
  WCI - WIND CHILL INDEX
   HX - HEAT INDEX
  VSB - VISIBILITY





USA.gov is the U.S. government's official web portal to all federal, state and local government web resources and services.